Quebec, Quebec

8:47 AM EDT on May 24, 2017 (GMT -0400)
Quebec

Weather History for CYQB - March, 2013

Change the Weather History Date:

Sunday, March 17, 2013

  Actual Average Record
Temperature  
Mean Temperature 12 °F -  
Max Temperature 17 °F 40 °F 44 °F (2009)
Min Temperature 6 °F 23 °F -6 °F (2014)
Degree Days  
Heating Degree Days 54    
Moisture  
Dew Point -0 °F    
Average Humidity 52    
Maximum Humidity 81    
Minimum Humidity 21    
Precipitation  
Precipitation 0.00 in 0.10 in - ()
Sea Level Pressure  
Sea Level Pressure 30.06 in    
Wind  
Wind Speed 7 mph ()    
Max Wind Speed 20 mph    
Max Gust Speed 32 mph    
Visibility 14.2 miles    
Events Snow    
Averages and records for this station are not official NWS values.
T = Trace of Precipitation, MM = Missing Value Source: Averaged Metar Reports

Daily Weather History Graph

Daily Weather History Graph

Search for Another Location

Airport or City:

Trip Planner

Search our weather history database for the weather conditions in past years. The results will help you decide how hot, cold, wet, or windy it might be!

Date:

Astronomy

Mar. 17, 2013 Rise Set
Actual Time 6:53 AM EDT 6:54 PM EDT
Civil Twilight 6:23 AM EDT 7:24 PM EDT
Nautical Twilight 5:48 AM EDT 8:00 PM EDT
Astronomical Twilight 5:12 AM EDT 8:36 PM EDT
Moon 9:44 AM EDT (3/17) 12:19 AM EDT (3/17)
Length of Visible Light 13h 00m
Length of Day
12h 00m
Waxing Crescent, 31% of the Moon is Illuminated
Mar 17
Waxing Crescent
Mar 19
First Quarter
Mar 27
Full
Apr 3
Last Quarter
Apr 10
New

Hourly Weather History & Observations

Time (EDT) Temp. Windchill Dew Point Humidity Pressure Visibility Wind Dir Wind Speed Gust Speed Precip Events Conditions
12:00 AM 15.8 °F - 6.8 °F 68% 29.89 in 15.0 mi West 2.3 mph - N/A   Clear
1:00 AM 12.2 °F 4.3 °F 6.8 °F 79% 29.88 in 15.0 mi WSW 4.6 mph - N/A   Clear
2:00 AM 9 °F - 6 °F 81% 29.88 in - North 2.3 mph - -  
2:00 AM 12.2 °F - 5.0 °F 73% 29.88 in 15.0 mi NNE 2.3 mph - N/A   Clear
3:00 AM 10.4 °F - 3.2 °F 73% 29.88 in 15.0 mi North 2.3 mph - N/A   Scattered Clouds
4:00 AM 12.2 °F - 3.2 °F 67% 29.89 in 15.0 mi North 2.3 mph - N/A   Mostly Cloudy
5:00 AM 12 °F - 3 °F 54% 29.89 in - NNW 2.3 mph - -  
5:00 AM 12.2 °F 4.3 °F 1.4 °F 62% 29.89 in 15.0 mi North 4.6 mph - N/A   Mostly Cloudy
6:00 AM 12.2 °F - 1.4 °F 62% 29.90 in 10.0 mi Calm Calm - N/A   Mostly Cloudy
7:00 AM 12.2 °F 0.7 °F 5.0 °F 73% 29.92 in 15.0 mi West 8.1 mph - N/A   Mostly Cloudy
7:16 AM 12.2 °F -0.2 °F - N/A% - 3.0 mi WNW 9.2 mph - N/A Snow Light Snow
8:00 AM 13 °F - 7 °F 68% 29.95 in - West 9.2 mph - -  
8:00 AM 12.2 °F -1.0 °F 6.8 °F 79% 29.95 in 6.0 mi West 10.4 mph - N/A Snow Light Snow
9:00 AM 14.0 °F -0.2 °F 5.0 °F 67% 29.98 in 12.0 mi WNW 12.7 mph - N/A   Mostly Cloudy
10:00 AM 14.0 °F -2.5 °F 1.4 °F 57% 30.00 in 20.0 mi WNW 17.3 mph 25.3 mph N/A   Mostly Cloudy
11:00 AM 14 °F - -2 °F 32% 30.03 in - NW 12.7 mph - -  
11:00 AM 15.8 °F 1.4 °F 1.4 °F 53% 30.03 in 25.0 mi WNW 13.8 mph 20.7 mph N/A   Mostly Cloudy
12:00 PM 15.8 °F -1.1 °F 3.2 °F 58% 30.06 in 20.0 mi West 19.6 mph 32.2 mph N/A   Mostly Cloudy
1:00 PM 15.8 °F -0.6 °F 1.4 °F 53% 30.08 in 25.0 mi WNW 18.4 mph 25.3 mph N/A   Mostly Cloudy
2:00 PM 15 °F - -2 °F 30% 30.09 in - WNW 19.6 mph - -  
2:00 PM 15.8 °F 2.1 °F -0.4 °F 49% 30.09 in 20.0 mi WNW 12.7 mph 29.9 mph N/A   Mostly Cloudy
3:00 PM 17.6 °F 1.3 °F -0.4 °F 45% 30.11 in 25.0 mi West 19.6 mph 25.3 mph N/A   Mostly Cloudy
4:00 PM 17.6 °F 4.3 °F -2.2 °F 42% 30.14 in 25.0 mi WNW 12.7 mph 21.9 mph N/A   Mostly Cloudy
5:00 PM 17 °F - -6 °F 21% 30.15 in - WNW 15.0 mph - -  
5:00 PM 17.6 °F 1.3 °F -5.8 °F 35% 30.15 in 25.0 mi NW 19.6 mph - N/A   Scattered Clouds
6:00 PM 17.6 °F 3.2 °F -5.8 °F 35% 30.18 in 25.0 mi WNW 15.0 mph 23.0 mph N/A   Partly Cloudy
7:00 PM 15.8 °F 0.3 °F -9.4 °F 32% 30.22 in 25.0 mi WNW 16.1 mph 21.9 mph N/A   Partly Cloudy
8:00 PM 13 °F - -5 °F 28% 30.25 in - West 8.1 mph - -  
8:00 PM 14.0 °F 2.9 °F -7.6 °F 38% 30.25 in 15.0 mi WNW 8.1 mph - N/A   Clear
9:00 PM 12.2 °F 2.9 °F -7.6 °F 41% 30.28 in 15.0 mi NW 5.8 mph - N/A   Clear
10:00 PM 12.2 °F 6.1 °F -9.4 °F 38% 30.30 in 15.0 mi WSW 3.5 mph - N/A   Clear
11:00 PM 8 °F - -6 °F 38% 30.32 in - WSW 3.5 mph - -  
11:00 PM 10.4 °F -0.4 °F -11.2 °F 37% 30.32 in 15.0 mi SW 6.9 mph - N/A   Clear